Regional Weather Roundup
Issued by NWS

Home | Current Version | Previous Version | Graphics & Text | Print | Product List | Glossary On
Versions: 1 2 3 4 5 6 7 8 9 10 11 12 13 14 15 16 17 18 19 20 21 22 23 24 25 26 27 28 29 30 31 32 33 34 35 36 37 38 39 40 41 42 43 44 45 46 47 48 49 50
000
ASUS45 KCYS 061810
RWRWY

WYOMING REGIONAL WEATHER ROUNDUP
NATIONAL WEATHER SERVICE CHEYENNE WY
1100 AM MST TUE DEC 06 2016

NOTE:  "FAIR" INDICATES FEW OR NO CLOUDS BELOW 12,000 FEET
WITH NO SIGNIFICANT WEATHER AND/OR OBSTRUCTIONS TO VISIBILITY.

WYZ001-061900-
YELLOWSTONE NATIONAL PARK

CITY           SKY/WX    TMP DP  RH WIND       PRES   REMARKS
LK YELLOWSTONE   N/A      6   0  76 CALM      29.74F
6HR MIN TEMP: -10; 6HR MAX TEMP:   7;

W YELLOWSTONE  NOT AVBL

$$
WYZ002>013-054>058-071-098>099-061900-
NORTHERN WYOMING

CITY           SKY/WX    TMP DP  RH WIND       PRES   REMARKS
JACKSON        FAIR      -4  -6  92 CALM      29.85F
CODY           FAIR      18   5  57 CALM      29.93F
GREYBULL       FAIR      13   6  74 CALM      30.00F
6HR MIN TEMP:   4; 6HR MAX TEMP:  14;

WORLAND        FAIR      12   5  73 CALM      29.98F
6HR MIN TEMP:  -2; 6HR MAX TEMP:  12;

SHERIDAN       CLOUDY     9   3  77 NW10      30.04S WCI  -5
6HR MIN TEMP:   0; 6HR MAX TEMP:  10; 6HR PCP: TRACE;

BUFFALO        LGT SNOW   8   2  76 CALM      29.96F
6HR MIN TEMP:   5; 6HR MAX TEMP:   8; 6HR PCP: TRACE;

GILLETTE       FAIR       6   1  80 W13       29.99S WCI -10
6HR MIN TEMP:  -5; 6HR MAX TEMP:   6;

HULETT         FAIR       9   1  72 W10       29.99F WCI  -6
NEWCASTLE      FAIR       9   1  72 NW18      30.00F WCI -10

$$
WYZ014>020-022>026-101>103-061900-
CENTRAL WYOMING

CITY           SKY/WX    TMP DP  RH WIND       PRES   REMARKS
BIG PINEY      PTSUNNY    2  -5  72 E5        29.82F WCI  -8
6HR MIN TEMP: -21; 6HR MAX TEMP:   2;

PINEDALE       CLOUDY    -4  -9  77 W6        29.83F WCI -16
DUBOIS         FAIR      10  -9  40 NW6       29.75F WCI   1
LANDER         FAIR       8  -3  61 N6        29.87F WCI  -2
6HR MIN TEMP:  -2; 6HR MAX TEMP:  12;

RIVERTON       FAIR      11  -5  48 NE3       29.88F
6HR MIN TEMP:  -3; 6HR MAX TEMP:  11;

CASPER         FAIR      11  -1  58 SW9       29.91F WCI  -2
6HR MIN TEMP:  -6; 6HR MAX TEMP:  11;

DOUGLAS        FAIR       6  -1  73 S3        29.97F
6HR MIN TEMP: -13; 6HR MAX TEMP:   6;


$$
WYZ021-027>030-104>119-061900-
SOUTHERN WYOMING

CITY           SKY/WX    TMP DP  RH WIND       PRES   REMARKS
EVANSTON       PTSUNNY   10  -4  53 E9        29.75F WCI  -3
6HR MIN TEMP:   0; 6HR MAX TEMP:  10;

KEMMERER         N/A      5  -6  61 E3        29.79F
FORT BRIDGER   CLOUDY     3  -5  69 CALM      29.82F
ROCK SPRINGS   FAIR       7  -6  55 CALM      29.82F
6HR MIN TEMP:  -7; 6HR MAX TEMP:   8;

DIXON          FAIR      13  -5  44 SE8       29.87F WCI   2
RAWLINS        FAIR       7  -8  50 SE6       29.84F WCI  -3
6HR MIN TEMP: -11; 6HR MAX TEMP:   8;

SARATOGA       FAIR      12  -9  37 CALM      29.83F
LARAMIE        FAIR      13 -12  32 S7        29.81F WCI   3
6HR MIN TEMP:  -8; 6HR MAX TEMP:  13;

CHEYENNE       FAIR      23 -26  10 NW12      29.87F WCI  12
6HR MIN TEMP:   7; 6HR MAX TEMP:  23;

TORRINGTON     FAIR      20   4  50 NW7       29.97F WCI  11
6HR MIN TEMP:   2; 6HR MAX TEMP:  20;

PINE BLUFFS    FAIR      27  -4  26 W8        29.94F WCI  18

$$



USA.gov is the U.S. government's official web portal to all federal, state and local government web resources and services.